RÉSULTATS
Le Trail du Postier 2017


results_logo
Scratch 32km Féminin 32km Masculin 32km Catég. 32km

Scratch 13km
Féminin 13km
Masculin 13km Catég. 13km

Statistiques
Temps officiel moyen : 01:16:25 (masc. 01:13:10 / fém. 01:25:18)
Finishers : 500 dont 366 masc. (73%) / 134 fém. (27%)
Licenciés : 120 (24 %)
Class./sexeNom de famille/PrénomTempsDoss.Nom du groupe/club ou entrepriseCatégorieSexePaysNuméro de licenceMoy.DiplômePartagez !
1PENIN Marie-Pierre01:03:41383LES GAZELLES DE VINEUILSEFFRA12.25
2MAGNINO Aurélie01:06:07311AC ROMORANTINSEFFRA177081811.80
3BARAT Isabelle01:06:0926MAUVES ATTITUDES RUNNING AND TRAILSEFFRA64786311.79
4JALLET Flavie01:06:27249S/L VS CHARTRES ATHLETISMEESFFRA109702811.74
5LELARGE Nathalie01:07:28291TOUT CHAILLES COURTSEFFRA11.56
6BAGHDADI Julie01:08:3620VINEUIL SPORTSSEFFRA155067811.37
7MANDARD Cecile01:09:13316SEFFRA11.27
8RIMLINGER Mélissa01:09:35433SEFFRA11.21
9BAGLAND Claudine01:10:4421M2FFRA11.03
10LECOMPERE Maryline01:10:46288SEFFRA11.02
11MOLINA Sophie01:10:50344SEFFRA11.01
12LOEILLOT Séverine01:12:29301AC CLOYESM1FFRA185661910.76
13JOST Magalie01:12:42253TRIATHLON CLUB NANTAISM1FFRAA58892C10.73
14VICENTE Cyrille01:12:46512TOUT CHAILLES COURTM2FFRA10.72
15AUCLAIR Maud01:13:1114M1FFRA10.66
16LE BRUN Candice01:14:06276RRUNSEFFRA10.53
17BROSSE Christine01:14:1485S/L AS MAROLLESM2FFRA72857810.51
18CHAZAUD Carole01:14:43107SEFFRA10.44
19VERSTRAETE Noemie01:15:25510VERSTEAMSEFFRA10.34
20CHEREAU Anne01:15:37108MARCEAUM1FFRA10.32
21BREE Sandrine01:15:4679US RENAUDINE ATHLE CROSSM1FFRA179577810.29
22DÉPIERRE Sandrine01:15:58176TOUT CHAILLES COURTM1FFRA10.27
23BOURDAIN Christelle01:16:3974LES FOULEES DU NOBLE JOUÉM1FFRA10.18
24BRUNEAU Suzanne01:17:0588S/L US ST-PIERRE-DES-CORPSM3FFRA55228110.12
25LESEURRE Caroline01:17:26296CAM VALLEE DU CHER-CONTROISM1FFRA178031710.07
26SCHULLER Christine01:17:42468DUCHENE SCHULLERM2FFRA10.04
27LABLEE Marlene01:17:48262AJ BLOIS-ONZAINSEFFRA199141410.03
28JOULIN Céline01:17:59255SEFFRA10.00
29LE LIEVRE Sandrine01:18:51279M1FFRA9.89
30PESSON Laurence01:18:55387RUN IN PRUNAYM1FFRA9.88
31POTDEVIN Laetitia01:19:09403DREAM TEAMM1FFRA9.85
32SANCHIS Emilie01:19:30458SANCHISSEFFRA9.81
33GAUTRON Aurélie01:19:42203SEFFRA9.79
34ROULLEAU Ingrid01:19:47445S/L US VENDOMOISE ATHLETISMEM1FFRA18019069.78
35METAIREAU Christelle01:20:04336S/L AS MAROLLESM2FFRA13783939.74
36ANDERT Sandrine01:20:116NATURE SPORT ATTITUDEM1FFRA9.73
37FERRIERE Karen01:20:14187SEFFRA9.72
38DIEULEVEUT Valerie01:20:29155AS ROTO SPORTS RUNNINGM2FFRA9.69
39MORTREAU Chloé01:20:59353SEFFRA9.63
40DAOUDAL Marie01:20:59126ESFFRA9.63
41PRIEUR Catherine01:21:04409LES RUNNERS 37M3FFRA9.62
42SALINGUE Véronique01:21:05455AJ BLOIS-ONZAINM2FFRA12824349.62
43ALLORY Jennifer01:21:182AS ROTO SPORTS RUNNINGM1FFRA9.59
44MACHU Fabienne01:21:22309AC ROMORANTINM2FFRA10913479.59
45CHEREAU Chantal01:21:27109NATURE SPORT ATTITUDEM3FFRA9.58
46BOULEAU Severine01:21:4073AC ROMORANTINM1FFRAB05384C9.55
47CLAUSSE Stéphanie01:22:23113M1FFRA9.47
48GRELET Claudine01:22:42220M3FFRA9.43
49RAMON Frédérique01:22:56421TOUT CHAILLES COURTM1FFRA9.41
50VINCENT Stephanie01:23:11519COURIR A SAINT GERVAISSEFFRA9.38
51RABOIS TRINCA Raymonde01:23:25419M1FFRA9.35
52SIMON Christine01:23:30475M1FFRA9.34
53ARNOU Sarah01:23:3213MAUVES ATTITUDES RUNNING AND TRAILM1FFRA15953369.34
54LAVALLE Aurélie01:23:34272SEFFRA9.33
55DUBOIS Annick01:23:56164COURIR A SAINT GERVAISM3FFRA9.29
56SCHALLER Isabelle01:24:12467M2FFRA9.26
57PASSILLY Sophie01:24:15377PASSILLYM1FFRA9.26
58DEBAUGNIES Marie01:24:15133DEBAUGNIESM1FFRA9.26
59BOULAY Jennifer01:24:2969SEFFRA9.23
60DEVOS Béatrice01:24:29152M2FFRA9.23
61JAHAN Laurence01:24:29248LES FOULEES DU NOBLE JOUÉM2FFRA9.23
62PEZIERE Florence01:24:40391NATURE SPORT ATTITUDEM2FFRA9.21
63NAYNA Carole01:24:55359AJ BLOIS-ONZAINM2FFRA18797999.19
64PELLE Nathalie01:25:03380NATCDM1FFRA9.17
65ARCHAMBAULT Cecile01:25:2310GTB ARCHI-TEYTAUDM1FFRA9.14
66TEYTAUD Celine01:25:23488GTB ARCHI-TEYTAUDM1FFRA9.14
67RENAUD Béatrice01:25:28425M1FFRA9.13
68LE ROY Sophie01:25:36281M1FFRA9.11
69BESNARD Aurelie01:25:4150SEMUR TEAMSEFFRA9.10
70STAMAR Sophie01:25:46480AS ROTO SPORTS RUNNINGM1FFRA9.09
71BENOIST Delphine01:25:5942CAM VALLEE DU CHER-CONTROISM1FFRA17518819.07
72LAMPSON Cecile01:26:03265CAM VALLEE DU CHER-CONTROISM2FFRA17229699.06
73ROBERT Graziella01:26:15437SEFFRA9.04
74PESSON Claire01:26:29386SEFFRA9.02
75TRUFFET Marie01:26:33501SEFFRA9.01
76CHANDOSNE Eve01:26:35232LES RUNNERS 37M1FFRA9.01
77CHANDON Sandrine01:26:46100VINEUIL SPORTSM1FFRA11280768.99
78AZARIAN Delphine01:26:4617VINEUIL SPORTSM1FFRA12996798.99
79BLASSET Morgane01:26:5161LEBONJUFFRA8.98
80BOURGOIN Elodie01:26:5975PASQUAL-BOURGOINM1FFRA8.97
81MILHIET Charline01:27:01341SEFFRA8.96
82LAQUERRIERE Nathalie01:27:01266SEFFRA8.96
83BRUGNIEAUX Elodie01:27:2486SEFFRA8.92
84JAVET Maryline01:27:32251NATURE SPORT ATTITUDEM2FFRA8.91
85MANARESI Corine01:27:43314ASJ RUNNINGM2FFRA14296138.89
86DARNAULT Priscilla01:27:47127COURTOUTOU-41SEFFRA8.89
87GENAY Anita01:27:47205COURTOUTOU-41M1FFRA8.89
88HARDION Laure01:27:57233CAM VALLEE DU CHER-CONTROISM1FFRA19750338.87
89MOLAC Dany01:28:13343US RENAUDINE ATHLE CROSSM2FFRA4870538.84
90BESNARD Sophie01:28:2552AC CLOYESSEFFRA19198248.82
91DRONE Isabelle01:28:29163LULUM2FFRA8.82
92SIMOES Sylvie01:28:38473S/L AS MAROLLESM2FFRA13867578.80
93HETTÉ Sandra01:28:55241JOGGING CLUB DUNOISM1FFRA8.77
94VOISIN Victorine01:29:05521SEFFRA8.76
95SAVOYINI Pauline01:29:17466SEFFRA8.74
96PROUST Milène01:29:31435AJ BLOIS-ONZAINSEFFRA15682888.71
97PIERRE Nathalie01:29:33392SYMBIOSEM1FFRA8.71
98NOURRISSON Cécile01:29:40367COURIR A SAINT GERVAISM2FFRA8.70
99GERNOT Emilie01:29:49209COURIR A SAINT GERVAISM1FFRA8.68
100LAURENT Aurore01:29:59271SEFFRA8.67
101GRESLE Sarah01:30:38224GRESLEESFFRA8.61
102ANTUNA Coralie01:30:428AS ROTO SPORTS RUNNINGSEFFRA8.60
103DESCHAMPS Stéphanie01:30:57149M1FFRA8.58
104POUSSET Virginie01:30:57407SEFFRA8.58
105MESSAOUDI Hakima01:30:57333M2FFRA8.58
106MAURICE Therese01:31:28328AS ROTO SPORTS RUNNINGM3FFRA8.53
107LAZENNEC Celine01:31:28274M2FFRA8.53
108DECUIGNIERES Edwige01:31:30139SEFFRA8.52
109CARE Nathalie01:31:3193M1FFRA8.52
110MEREAUD Stephanie01:31:36332COURIR A SAINT GERVAISM1FFRA13740078.52
111DELACOTE Marie Laure01:31:54141CAM VALLEE DU CHER-CONTROISM1FFRA13243568.49
112RICHARD Nathalie01:32:00430BOULBESM2FFRA8.48
113DEVOYE Helene01:32:50153M2FFRA8.40
114BARBIER Marie Pierre01:32:5428NATURE SPORT ATTITUDEM2FFRA8.40
115COUTEAU Myriam01:33:26121MYRIAM ET BRUNOM2FFRA8.35
116MORISSET Isabelle01:34:45351M1FFRA8.23
117LUCAS Ketty01:34:54305SEFFRA8.22
118LE SAUX Justine01:35:46282LE SAUXSEFFRA8.14
119ORY Christele01:36:21371LES LULUS 2M1FFRA8.10
120CHABRIER Véronique01:36:2799M2FFRA8.09
121DEFROCOURT Isabelle01:36:32140M1FFRA8.08
122SINEAU Corinne01:36:48477AVENIR AMBOISE ATHLETISMEM1FFRA18985688.06
123MARCQ Claire01:37:11321SEFFRA8.03
124ALZY Florence01:37:294M1FFRA8.00
125GLON Mauricette01:37:42212GLONM2FFRA7.98
126MAZET Sandrine01:40:03329S/L AS MAROLLESM1FFRA10864577.80
127BERTRAND Charlene01:40:3147COURTOUTOU-41SEFFRA7.76
128DUCLOUX Frederique01:40:45170FNOUVEAUM2FFRA7.74
129LEFEVRE Delphine01:43:28290M1FFRA7.54
130DOUSSOT Laurène01:44:33159SEFFRA7.46
131GABORIT Sophia01:46:20198M1FFRA7.34
132PAQUIN Delphine01:48:00373OTC45SEFFRA7.22
133BARBARY Vanessa01:54:0927M1FFRA6.83
134PAUGOIS Nadia01:58:01378M2FFRA6.61
logo_onsinscrit